Regional Weather Roundup
Issued by NWS

Home | Current Version | Previous Version | Graphics & Text | Print | Product List | Glossary On
Versions: 1 2 3 4 5 6 7 8 9 10 11 12 13 14 15 16 17 18 19 20 21 22 23 24 25 26 27 28 29 30 31 32 33 34 35 36 37 38 39 40 41 42 43 44 45 46 47 48 49 50
000
ASUS43 KIND 141009
RWRIN

WEATHER ROUNDUP FOR INDIANA
NATIONAL WEATHER SERVICE INDIANAPOLIS IN
500 AM EST THU DEC 14 2017

NOTE: "FAIR" INDICATES FEW OR NO CLOUDS BELOW 12,000 FEET WITH NO
SIGNIFICANT WEATHER AND/OR OBSTRUCTIONS TO VISIBILITY.

* - STATION DOES NOT REPORT WEATHER SUCH AS PRECIPITATION OR FOG.

+ - STATION NOT QUALITY CONTROLLED BY THE NATIONAL WEATHER SERVICE.
    USE DATA WITH CAUTION...ESPECIALLY DEWPOINT AND RELATIVE
    HUMIDITY OBSERVATIONS.

INZ001>003-010>013-019-020-141100-
NORTHWEST INDIANA

CITY           SKY/WX    TMP DP  RH WIND       PRES   REMARKS
GARY /AIRPORT/ FLURRIES  27  21  77 NW13      29.91R WCI  16
KNOX *+        CLOUDY    23  18  80 NE8       29.88S WCI  14
LA PORTE +     CLOUDY    21  14  75 NE6       29.88S WCI  13
MICHIGAN CITY+ CLOUDY    23  14  68 E5        29.90R WCI  17
MONTICELLO +   CLOUDY    26  19  73 NE7       29.87R WCI  19
RENSSELAER +   CLOUDY    30  16  55 N7        29.89R WCI  23
VALPARAISO     CLOUDY    25  19  78 E10       29.88R WCI  15

$$

LMZ046-743>745-141100-
SOUTHERN LAKE MICHIGAN

STATION/POSITION TIME  TEMP    WIND        PRES    WAVE
                       AIR SEA DIR/SP/G            HT
                 (UTC) (F)     (DEG/KT/KT) (MB)    (FT)
BURNS HARBOR     0940   30      10/ 17/ 21 1011.9S
MICHIGAN CITY    0940   27      10/ 21/ 24   N/A

$$

INZ004-005-014>016-021>024-141100-
NORTH CENTRAL INDIANA

CITY           SKY/WX    TMP DP  RH WIND       PRES   REMARKS
GOSHEN         CLEAR     14  11  87 NW9       29.87R WCI   2
LOGANSPORT +   MOCLDY    23  16  74 N9        29.88R WCI  13
PERU/GRISSOM   CLEAR     20  14  80 N5        29.86R WCI  13
ROCHESTER +    CLEAR     19  14  79 N5        29.88R WCI  13
SOUTH BEND     CLOUDY    13  10  88 NE5       29.89R WCI   5
WARSAW +       PTCLDY    19  14  79 N6        29.86S WCI  11

$$

INZ006>009-017-018-025>027-141100-
NORTHEAST INDIANA

CITY           SKY/WX    TMP DP  RH WIND       PRES   REMARKS
AUBURN +       CLOUDY    21  14  73 N9G18     29.85R WCI  11
FORT WAYNE     CLOUDY    21  15  78 NW10      29.86R WCI  10
HUNTINGTON +   CLOUDY    20  14  80 N12       29.87R WCI   7
KENDALLVILLE + FLURRIES  17  13  86 NW5       29.85S WCI   9

$$

INZ028-029-035-036-043>045-051>053-141100-
WEST CENTRAL INDIANA

CITY           SKY/WX    TMP DP  RH WIND       PRES   REMARKS
CRAWFORDSVL +  CLOUDY    28  19  70 N9        29.86R WCI  19
GREENCASTLE +  CLOUDY    30  19  64 NW5       29.89R WCI  25
LAFAYETTE      CLOUDY    29  20  69 N12       29.88R WCI  19
TERRE HAUTE    CLOUDY    30  19  63 NW12      29.91R WCI  20

$$

INZ030>032-037>040-046>048-054>057-064-065-141100-
CENTRAL INDIANA

CITY           SKY/WX    TMP DP  RH WIND       PRES   REMARKS
FRANKFORT +    CLOUDY    29  22  73 NE7       29.88R WCI  22
GREENWOOD *+   CLOUDY    32  22  67 N14G21    29.87R WCI  22
INDIANAPOLIS   CLOUDY    29  19  66 NW18      29.87R WCI  16
-EAGLE CREEK   CLOUDY    30  18  60 N14       29.86R WCI  19
KOKOMO +       CLEAR     20  15  81 N9        29.88R WCI   9
MARION +       MOCLDY    20  16  84 N8        29.88R WCI  10
MT COMFORT *+  CLOUDY    25  19  80 N12       29.86R WCI  14
SHELBYVILLE    CLOUDY    29  17  61 N17G25    29.85R WCI  17
ZIONSVILLE +   CLOUDY    25  18  74 N12G17    29.87R WCI  15

$$

INZ033-034-041-042-049-050-058-059-141100-
EAST CENTRAL INDIANA

CITY           SKY/WX    TMP DP  RH WIND       PRES   REMARKS
MUNCIE         CLOUDY    23  16  74 N12       29.85R WCI  12
RICHMOND +     MOCLDY    23  18  80 NW13G22   29.82R WCI  11

$$

INZ060-061-067>069-081>083-085>088-141100-
SOUTHWEST INDIANA

CITY           SKY/WX    TMP DP  RH WIND       PRES   REMARKS
EVANSVILLE     CLOUDY    34  24  67 N16G25    29.92R WCI  24
HUNTINGBURG +  CLOUDY    29  21  72 NW12      29.92R WCI  19
WASHINGTON +   CLOUDY    28  19  70 NW8       29.93R WCI  20

$$

INZ062-063-066-070>080-084-089>092-141100-
SOUTH CENTRAL AND SOUTHEAST INDIANA

CITY           SKY/WX    TMP DP  RH WIND       PRES   REMARKS
BEDFORD +      CLOUDY    30  19  64 NW6       29.87R WCI  24
BLOOMINGTON    CLOUDY    30  18  60 VRB7      29.87R WCI  23
MADISON *+     CLOUDY    32  21  64 W7        29.87R WCI  26
NORTH VERNON + CLOUDY    28  19  69 NW8G16    29.85R WCI  20
SEYMOUR +      CLOUDY    32  19  59 NW13      29.87R WCI  22

$$




USA.gov is the U.S. government's official web portal to all federal, state and local government web resources and services.